Time,TemperatureF,DewpointF,PressureIn,WindDirection,WindDirectionDegrees,WindSpeedMPH,WindSpeedGustMPH,Humidity,HourlyPrecipIn,Conditions,Clouds,dailyrainin,SoftwareType,DateUTC
2013-01-18 00:00:00,33.8,24.0,30.03,NNW,340,4.0,13.0,67,0.00,,,0.00,Wunderground v.1.15,2013-01-18 05:00:00,
2013-01-18 00:05:00,33.8,23.6,30.04,NW,311,5.0,13.0,66,0.00,,,0.00,Wunderground v.1.15,2013-01-18 05:05:00,
2013-01-18 00:10:00,33.7,23.5,30.05,NNW,334,4.0,13.0,66,0.00,,,0.00,Wunderground v.1.15,2013-01-18 05:10:00,
2013-01-18 00:15:00,33.7,23.5,30.03,NNE,19,2.0,13.0,66,0.00,,,0.00,Wunderground v.1.15,2013-01-18 05:15:00,
2013-01-18 00:20:00,33.6,23.4,30.04,NNW,340,2.0,13.0,66,0.00,,,0.00,Wunderground v.1.15,2013-01-18 05:20:00,
2013-01-18 00:30:00,33.5,23.4,30.05,North,355,2.0,2.0,66,0.00,,,0.00,Wunderground v.1.15,2013-01-18 05:30:00,
2013-01-18 00:39:00,33.3,22.4,30.03,North,360,3.0,13.0,64,0.00,,,0.00,Wunderground v.1.15,2013-01-18 05:39:00,
2013-01-18 00:49:00,33.1,22.6,30.04,NNW,348,3.0,13.0,65,0.00,,,0.00,Wunderground v.1.15,2013-01-18 05:49:00,
2013-01-18 00:54:00,33.1,22.6,30.02,NNW,333,3.0,13.0,65,0.00,,,0.00,Wunderground v.1.15,2013-01-18 05:54:00,
2013-01-18 00:59:00,33.0,22.9,30.03,NW,325,4.0,4.0,66,0.00,,,0.00,Wunderground v.1.15,2013-01-18 05:59:00,
2013-01-18 01:04:00,32.9,22.4,30.05,NNW,327,3.0,5.0,65,0.00,,,0.00,Wunderground v.1.15,2013-01-18 06:04:00,
2013-01-18 01:09:00,32.7,20.7,30.05,North,355,3.0,3.0,61,0.00,,,0.00,Wunderground v.1.15,2013-01-18 06:09:00,
2013-01-18 01:14:00,32.6,20.6,30.06,NNW,330,3.0,6.0,61,0.00,,,0.00,Wunderground v.1.15,2013-01-18 06:14:00,
2013-01-18 01:24:00,32.4,20.0,30.05,North,355,3.0,13.0,60,0.00,,,0.00,Wunderground v.1.15,2013-01-18 06:24:00,
2013-01-18 01:29:00,32.4,20.0,30.05,NNW,334,3.0,13.0,60,0.00,,,0.00,Wunderground v.1.15,2013-01-18 06:29:00,
2013-01-18 01:34:00,32.3,20.3,30.05,NNW,333,4.0,13.0,61,0.00,,,0.00,Wunderground v.1.15,2013-01-18 06:34:00,
2013-01-18 01:39:00,32.2,19.9,30.06,North,355,4.0,13.0,60,0.00,,,0.00,Wunderground v.1.15,2013-01-18 06:39:00,
2013-01-18 01:44:00,32.2,19.9,30.08,NNW,332,3.0,13.0,60,0.00,,,0.00,Wunderground v.1.15,2013-01-18 06:44:00,
2013-01-18 01:54:00,32.1,19.8,30.08,NNE,13,5.0,13.0,60,0.00,,,0.00,Wunderground v.1.15,2013-01-18 06:54:00,
2013-01-18 01:59:00,32.1,20.2,30.09,North,355,5.0,13.0,61,0.00,,,0.00,Wunderground v.1.15,2013-01-18 06:59:00,
2013-01-18 02:09:00,31.9,20.3,30.10,NE,39,5.0,13.0,62,0.00,,,0.00,Wunderground v.1.15,2013-01-18 07:09:00,
2013-01-18 02:14:00,31.7,20.9,30.09,North,355,4.0,13.0,64,0.00,,,0.00,Wunderground v.1.15,2013-01-18 07:14:00,
2013-01-18 02:19:00,31.5,21.1,30.08,NNE,26,3.0,3.0,65,0.00,,,0.00,Wunderground v.1.15,2013-01-18 07:19:00,
2013-01-18 02:29:00,31.3,21.3,30.09,NNE,29,2.0,13.0,66,0.00,,,0.00,Wunderground v.1.15,2013-01-18 07:29:00,
2013-01-18 02:34:00,31.2,20.8,30.07,NNW,340,3.0,13.0,65,0.00,,,0.00,Wunderground v.1.15,2013-01-18 07:34:00,
2013-01-18 02:44:00,31.3,20.9,30.08,North,355,3.0,13.0,65,0.00,,,0.00,Wunderground v.1.15,2013-01-18 07:44:00,
2013-01-18 02:54:00,31.4,19.5,30.08,NW,325,4.0,13.0,61,0.00,,,0.00,Wunderground v.1.15,2013-01-18 07:54:00,
2013-01-18 03:04:00,31.3,18.6,30.10,North,350,3.0,13.0,59,0.00,,,0.00,Wunderground v.1.15,2013-01-18 08:04:00,
2013-01-18 03:09:00,31.4,19.1,30.11,NW,326,4.0,13.0,60,0.00,,,0.00,Wunderground v.1.15,2013-01-18 08:09:00,
2013-01-18 03:14:00,31.3,18.6,30.10,NW,309,5.0,13.0,59,0.00,,,0.00,Wunderground v.1.15,2013-01-18 08:14:00,
2013-01-18 03:19:00,31.2,18.5,30.09,NW,324,5.0,5.0,59,0.00,,,0.00,Wunderground v.1.15,2013-01-18 08:19:00,
2013-01-18 03:24:00,31.1,18.4,30.09,NNE,15,4.0,13.0,59,0.00,,,0.00,Wunderground v.1.15,2013-01-18 08:24:00,
2013-01-18 03:34:00,30.9,18.2,30.09,NNW,342,6.0,13.0,59,0.00,,,0.00,Wunderground v.1.15,2013-01-18 08:34:00,
2013-01-18 03:43:00,30.8,18.5,30.07,North,5,3.0,13.0,60,0.00,,,0.00,Wunderground v.1.15,2013-01-18 08:43:00,
2013-01-18 03:49:00,30.7,18.8,30.08,NNW,342,3.0,13.0,61,0.00,,,0.00,Wunderground v.1.15,2013-01-18 08:49:00,
2013-01-18 03:55:00,30.7,19.2,30.10,NW,321,4.0,13.0,62,0.00,,,0.00,Wunderground v.1.15,2013-01-18 08:55:00,
2013-01-18 04:05:00,30.6,20.2,30.09,NW,326,3.0,13.0,65,0.00,,,0.00,Wunderground v.1.15,2013-01-18 09:05:00,
2013-01-18 04:15:00,30.6,20.6,30.10,North,5,3.0,13.0,66,0.00,,,0.00,Wunderground v.1.15,2013-01-18 09:15:00,
2013-01-18 04:20:00,30.6,20.6,30.09,NW,317,3.0,3.0,66,0.00,,,0.00,Wunderground v.1.15,2013-01-18 09:20:00,
2013-01-18 04:29:00,30.1,20.1,30.09,NW,325,4.0,13.0,66,0.00,,,0.00,Wunderground v.1.15,2013-01-18 09:29:00,
2013-01-18 04:34:00,30.0,20.0,30.10,NNE,30,4.0,13.0,66,0.00,,,0.00,Wunderground v.1.15,2013-01-18 09:34:00,
2013-01-18 04:39:00,30.1,19.7,30.11,NNW,343,3.0,3.0,65,0.00,,,0.00,Wunderground v.1.15,2013-01-18 09:39:00,
2013-01-18 04:44:00,30.1,19.4,30.11,NNW,329,3.0,5.0,64,0.00,,,0.00,Wunderground v.1.15,2013-01-18 09:44:00,
2013-01-18 04:54:00,30.3,18.5,30.11,NNW,333,5.0,5.0,61,0.00,,,0.00,Wunderground v.1.15,2013-01-18 09:54:00,
2013-01-18 04:59:00,30.2,18.4,30.12,NW,317,4.0,4.0,61,0.00,,,0.00,Wunderground v.1.15,2013-01-18 09:59:00,
2013-01-18 05:04:00,30.2,18.4,30.13,NW,325,5.0,5.0,61,0.00,,,0.00,Wunderground v.1.15,2013-01-18 10:04:00,
2013-01-18 05:09:00,30.2,18.0,30.13,NNW,327,5.0,13.0,60,0.00,,,0.00,Wunderground v.1.15,2013-01-18 10:09:00,
2013-01-18 05:14:00,30.2,17.6,30.13,NNW,339,5.0,13.0,59,0.00,,,0.00,Wunderground v.1.15,2013-01-18 10:14:00,
2013-01-18 05:24:00,30.1,16.7,30.14,NW,317,6.0,13.0,57,0.00,,,0.00,Wunderground v.1.15,2013-01-18 10:24:00,
2013-01-18 05:34:00,29.8,17.2,30.16,NW,314,5.0,13.0,59,0.00,,,0.00,Wunderground v.1.15,2013-01-18 10:34:00,
2013-01-18 05:44:00,29.6,16.6,30.17,NW,316,6.0,13.0,58,0.00,,,0.00,Wunderground v.1.15,2013-01-18 10:44:00,
2013-01-18 05:49:00,29.6,17.0,30.17,NW,323,6.0,6.0,59,0.00,,,0.00,Wunderground v.1.15,2013-01-18 10:49:00,
2013-01-18 05:54:00,29.5,17.3,30.18,NNW,336,5.0,13.0,60,0.00,,,0.00,Wunderground v.1.15,2013-01-18 10:54:00,
2013-01-18 05:59:00,29.4,18.0,30.19,NNW,338,6.0,6.0,62,0.00,,,0.00,Wunderground v.1.15,2013-01-18 10:59:00,
2013-01-18 06:09:00,29.5,17.3,30.19,NW,312,6.0,14.0,60,0.00,,,0.00,Wunderground v.1.15,2013-01-18 11:09:00,
2013-01-18 06:14:00,29.4,17.2,30.19,NW,319,6.0,14.0,60,0.00,,,0.00,Wunderground v.1.15,2013-01-18 11:14:00,
2013-01-18 06:19:00,29.1,16.9,30.19,NW,305,5.0,14.0,60,0.00,,,0.00,Wunderground v.1.15,2013-01-18 11:19:00,
2013-01-18 06:24:00,28.8,16.6,30.19,NW,315,7.0,14.0,60,0.00,,,0.00,Wunderground v.1.15,2013-01-18 11:24:00,
2013-01-18 06:29:00,28.6,16.5,30.20,NW,307,8.0,14.0,60,0.00,,,0.00,Wunderground v.1.15,2013-01-18 11:29:00,
2013-01-18 06:39:00,28.3,16.9,30.21,NNW,345,6.0,6.0,62,0.00,,,0.00,Wunderground v.1.15,2013-01-18 11:39:00,
2013-01-18 06:49:00,28.3,16.2,30.23,NNW,347,6.0,6.0,60,0.00,,,0.00,Wunderground v.1.15,2013-01-18 11:49:00,
2013-01-18 06:59:00,28.2,16.8,30.23,NW,315,7.0,14.0,62,0.00,,,0.00,Wunderground v.1.15,2013-01-18 11:59:00,
2013-01-18 07:09:00,28.0,15.5,30.24,NNW,335,8.0,14.0,59,0.00,,,0.00,Wunderground v.1.15,2013-01-18 12:09:00,
2013-01-18 07:14:00,27.8,15.7,30.25,NW,315,8.0,14.0,60,0.00,,,0.00,Wunderground v.1.15,2013-01-18 12:14:00,
2013-01-18 07:19:00,27.8,15.3,30.26,NW,319,7.0,7.0,59,0.00,,,0.00,Wunderground v.1.15,2013-01-18 12:19:00,
2013-01-18 07:24:00,27.7,15.6,30.26,NW,311,8.0,8.0,60,0.00,,,0.00,Wunderground v.1.15,2013-01-18 12:24:00,
2013-01-18 07:29:00,27.6,14.7,30.26,North,355,8.0,8.0,58,0.00,,,0.00,Wunderground v.1.15,2013-01-18 12:29:00,
2013-01-18 07:34:00,27.5,15.0,30.26,NW,319,7.0,14.0,59,0.00,,,0.00,Wunderground v.1.15,2013-01-18 12:34:00,
2013-01-18 07:44:00,27.2,14.4,30.27,NNW,348,8.0,14.0,58,0.00,,,0.00,Wunderground v.1.15,2013-01-18 12:44:00,
2013-01-18 07:50:00,27.1,15.0,30.28,NNW,333,8.0,14.0,60,0.00,,,0.00,Wunderground v.1.15,2013-01-18 12:50:00,
2013-01-18 07:55:00,26.9,14.5,30.29,NW,326,7.0,14.0,59,0.00,,,0.00,Wunderground v.1.15,2013-01-18 12:55:00,
2013-01-18 08:00:00,26.7,14.7,30.29,NW,325,7.0,7.0,60,0.00,,,0.00,Wunderground v.1.15,2013-01-18 13:00:00,
2013-01-18 08:10:00,26.9,15.6,30.31,NW,317,10.0,10.0,62,0.00,,,0.00,Wunderground v.1.15,2013-01-18 13:10:00,
2013-01-18 08:15:00,26.9,14.9,30.31,NNW,339,10.0,14.0,60,0.00,,,0.00,Wunderground v.1.15,2013-01-18 13:15:00,
2013-01-18 08:25:00,26.8,14.4,30.32,NNW,341,11.0,12.0,59,0.00,,,0.00,Wunderground v.1.15,2013-01-18 13:25:00,
2013-01-18 08:34:00,26.7,13.5,30.33,NW,320,12.0,14.0,57,0.00,,,0.00,Wunderground v.1.15,2013-01-18 13:34:00,
2013-01-18 08:44:00,26.7,13.1,30.33,North,360,9.0,13.0,56,0.00,,,0.00,Wunderground v.1.15,2013-01-18 13:44:00,
2013-01-18 08:49:00,27.0,14.2,30.33,NW,323,9.0,17.0,58,0.00,,,0.00,Wunderground v.1.15,2013-01-18 13:49:00,
2013-01-18 08:54:00,26.9,12.5,30.34,NW,320,10.0,17.0,54,0.00,,,0.00,Wunderground v.1.15,2013-01-18 13:54:00,
2013-01-18 08:59:00,26.7,11.8,30.35,NW,325,13.0,14.0,53,0.00,,,0.00,Wunderground v.1.15,2013-01-18 13:59:00,
2013-01-18 09:04:00,26.9,11.6,30.35,NNW,327,11.0,17.0,52,0.00,,,0.00,Wunderground v.1.15,2013-01-18 14:04:00,
2013-01-18 09:09:00,26.8,10.6,30.35,NW,319,10.0,10.0,50,0.00,,,0.00,Wunderground v.1.15,2013-01-18 14:09:00,
2013-01-18 09:19:00,26.8,10.6,30.36,North,5,9.0,14.0,50,0.00,,,0.00,Wunderground v.1.15,2013-01-18 14:19:00,
2013-01-18 09:24:00,26.9,10.7,30.36,NW,304,10.0,14.0,50,0.00,,,0.00,Wunderground v.1.15,2013-01-18 14:24:00,
2013-01-18 09:29:00,27.0,11.3,30.37,NNW,331,11.0,14.0,51,0.00,,,0.00,Wunderground v.1.15,2013-01-18 14:29:00,
2013-01-18 09:34:00,26.7,8.7,30.38,NW,323,13.0,15.0,46,0.00,,,0.00,Wunderground v.1.15,2013-01-18 14:34:00,
2013-01-18 09:44:00,26.9,10.7,30.39,NW,305,11.0,14.0,50,0.00,,,0.00,Wunderground v.1.15,2013-01-18 14:44:00,
2013-01-18 09:54:00,27.2,9.6,30.40,North,360,10.0,14.0,47,0.00,,,0.00,Wunderground v.1.15,2013-01-18 14:54:00,
2013-01-18 09:59:00,27.1,9.5,30.40,NW,310,11.0,18.0,47,0.00,,,0.00,Wunderground v.1.15,2013-01-18 14:59:00,
2013-01-18 10:09:00,26.6,7.6,30.41,NW,319,12.0,14.0,44,0.00,,,0.00,Wunderground v.1.15,2013-01-18 15:09:00,
2013-01-18 10:14:00,26.5,7.5,30.41,NW,311,11.0,14.0,44,0.00,,,0.00,Wunderground v.1.15,2013-01-18 15:14:00,
2013-01-18 10:19:00,26.7,9.1,30.41,NW,304,11.0,17.0,47,0.00,,,0.00,Wunderground v.1.15,2013-01-18 15:19:00,
2013-01-18 10:29:00,26.9,8.4,30.42,WNW,302,10.0,14.0,45,0.00,,,0.00,Wunderground v.1.15,2013-01-18 15:29:00,
2013-01-18 10:39:00,27.2,10.5,30.42,NW,310,10.0,10.0,49,0.00,,,0.00,Wunderground v.1.15,2013-01-18 15:39:00,
2013-01-18 10:44:00,27.3,10.6,30.42,NW,313,9.0,14.0,49,0.00,,,0.00,Wunderground v.1.15,2013-01-18 15:44:00,
2013-01-18 10:49:00,27.1,10.0,30.42,WNW,292,11.0,14.0,48,0.00,,,0.00,Wunderground v.1.15,2013-01-18 15:49:00,
2013-01-18 10:59:00,27.2,8.6,30.42,NW,309,11.0,14.0,45,0.00,,,0.00,Wunderground v.1.15,2013-01-18 15:59:00,
2013-01-18 11:04:00,26.8,8.3,30.42,NW,307,12.0,14.0,45,0.00,,,0.00,Wunderground v.1.15,2013-01-18 16:04:00,
2013-01-18 11:09:00,26.6,9.5,30.42,WNW,298,11.0,14.0,48,0.00,,,0.00,Wunderground v.1.15,2013-01-18 16:09:00,
2013-01-18 11:14:00,27.2,10.5,30.42,NW,306,10.0,14.0,49,0.00,,,0.00,Wunderground v.1.15,2013-01-18 16:14:00,
2013-01-18 11:24:00,27.4,9.8,30.41,NW,313,9.0,14.0,47,0.00,,,0.00,Wunderground v.1.15,2013-01-18 16:24:00,
2013-01-18 11:34:00,27.4,9.3,30.42,WNW,300,11.0,14.0,46,0.00,,,0.00,Wunderground v.1.15,2013-01-18 16:34:00,
2013-01-18 11:43:00,28.0,11.7,30.42,West,266,11.0,14.0,50,0.00,,,0.00,Wunderground v.1.15,2013-01-18 16:43:00,
2013-01-18 11:48:00,28.1,10.4,30.42,NW,315,11.0,11.0,47,0.00,,,0.00,Wunderground v.1.15,2013-01-18 16:48:00,
2013-01-18 11:53:00,27.7,9.1,30.42,West,274,12.0,12.0,45,0.00,,,0.00,Wunderground v.1.15,2013-01-18 16:53:00,
2013-01-18 11:59:00,27.8,10.6,30.42,NW,313,12.0,22.0,48,0.00,,,0.00,Wunderground v.1.15,2013-01-18 16:59:00,
2013-01-18 12:08:00,27.8,9.7,30.42,WNW,292,12.0,12.0,46,0.00,,,0.00,Wunderground v.1.15,2013-01-18 17:08:00,
2013-01-18 12:13:00,27.8,10.6,30.42,NW,317,11.0,22.0,48,0.00,,,0.00,Wunderground v.1.15,2013-01-18 17:13:00,
2013-01-18 12:23:00,26.9,7.9,30.42,NW,325,11.0,22.0,44,0.00,,,0.00,Wunderground v.1.15,2013-01-18 17:23:00,
2013-01-18 12:33:00,27.5,8.9,30.42,NW,324,11.0,17.0,45,0.00,,,0.00,Wunderground v.1.15,2013-01-18 17:33:00,
2013-01-18 12:43:00,27.7,8.6,30.42,WNW,286,13.0,13.0,44,0.00,,,0.00,Wunderground v.1.15,2013-01-18 17:43:00,
2013-01-18 12:50:00,27.9,7.7,30.42,WNW,289,13.0,13.0,42,0.00,,,0.00,Wunderground v.1.15,2013-01-18 17:50:00,
2013-01-18 12:59:00,27.9,8.3,30.42,NW,312,12.0,22.0,43,0.00,,,0.00,Wunderground v.1.15,2013-01-18 17:59:00,
2013-01-18 13:04:00,28.0,8.9,30.42,WNW,291,12.0,22.0,44,0.00,,,0.00,Wunderground v.1.15,2013-01-18 18:04:00,
2013-01-18 13:09:00,28.2,8.0,30.43,NW,309,11.0,11.0,42,0.00,,,0.00,Wunderground v.1.15,2013-01-18 18:09:00,
2013-01-18 13:15:00,28.1,8.4,30.42,NNW,332,11.0,12.0,43,0.00,,,0.00,Wunderground v.1.15,2013-01-18 18:15:00,
2013-01-18 13:24:00,28.6,7.3,30.43,NW,308,9.0,14.0,40,0.00,,,0.00,Wunderground v.1.15,2013-01-18 18:24:00,
2013-01-18 13:34:00,28.6,8.4,30.42,NW,316,10.0,11.0,42,0.00,,,0.00,Wunderground v.1.15,2013-01-18 18:34:00,
2013-01-18 13:39:00,28.3,7.0,30.43,NW,311,9.0,9.0,40,0.00,,,0.00,Wunderground v.1.15,2013-01-18 18:39:00,
2013-01-18 13:44:00,28.4,7.7,30.42,WNW,284,9.0,11.0,41,0.00,,,0.00,Wunderground v.1.15,2013-01-18 18:44:00,
2013-01-18 13:49:00,28.4,6.6,30.42,NW,317,10.0,22.0,39,0.00,,,0.00,Wunderground v.1.15,2013-01-18 18:49:00,
2013-01-18 13:59:00,28.3,6.5,30.42,NW,306,10.0,10.0,39,0.00,,,0.00,Wunderground v.1.15,2013-01-18 18:59:00,
2013-01-18 14:09:00,28.2,6.9,30.43,WNW,290,10.0,22.0,40,0.00,,,0.00,Wunderground v.1.15,2013-01-18 19:09:00,
2013-01-18 14:14:00,28.4,8.2,30.43,NW,304,10.0,22.0,42,0.00,,,0.00,Wunderground v.1.15,2013-01-18 19:14:00,
2013-01-18 14:19:00,28.5,8.3,30.43,WNW,303,10.0,22.0,42,0.00,,,0.00,Wunderground v.1.15,2013-01-18 19:19:00,
2013-01-18 14:24:00,28.3,8.1,30.44,NW,304,9.0,22.0,42,0.00,,,0.00,Wunderground v.1.15,2013-01-18 19:24:00,
2013-01-18 14:34:00,28.5,7.2,30.44,WNW,292,9.0,22.0,40,0.00,,,0.00,Wunderground v.1.15,2013-01-18 19:34:00,
2013-01-18 14:39:00,28.5,8.3,30.44,WNW,285,9.0,22.0,42,0.00,,,0.00,Wunderground v.1.15,2013-01-18 19:39:00,
2013-01-18 14:44:00,28.7,7.9,30.44,WNW,298,9.0,22.0,41,0.00,,,0.00,Wunderground v.1.15,2013-01-18 19:44:00,
2013-01-18 14:54:00,28.5,6.6,30.44,NW,321,8.0,22.0,39,0.00,,,0.00,Wunderground v.1.15,2013-01-18 19:54:00,
2013-01-18 14:59:00,28.4,6.0,30.44,WNW,290,9.0,9.0,38,0.00,,,0.00,Wunderground v.1.15,2013-01-18 19:59:00,
2013-01-18 15:09:00,28.6,8.4,30.44,WNW,299,7.0,7.0,42,0.00,,,0.00,Wunderground v.1.15,2013-01-18 20:09:00,
2013-01-18 15:19:00,28.3,6.5,30.45,NW,313,7.0,7.0,39,0.00,,,0.00,Wunderground v.1.15,2013-01-18 20:19:00,
2013-01-18 15:24:00,28.5,7.8,30.45,WNW,288,7.0,9.0,41,0.00,,,0.00,Wunderground v.1.15,2013-01-18 20:24:00,
2013-01-18 15:29:00,28.4,8.2,30.45,NW,317,7.0,22.0,42,0.00,,,0.00,Wunderground v.1.15,2013-01-18 20:29:00,
2013-01-18 15:34:00,28.2,7.5,30.45,NW,311,7.0,22.0,41,0.00,,,0.00,Wunderground v.1.15,2013-01-18 20:34:00,
2013-01-18 15:44:00,28.2,8.0,30.45,NW,315,6.0,22.0,42,0.00,,,0.00,Wunderground v.1.15,2013-01-18 20:44:00,
2013-01-18 15:49:00,28.2,9.0,30.45,WNW,286,4.0,4.0,44,0.00,,,0.00,Wunderground v.1.15,2013-01-18 20:49:00,
2013-01-18 15:59:00,28.4,8.7,30.45,WNW,297,2.0,22.0,43,0.00,,,0.00,Wunderground v.1.15,2013-01-18 20:59:00,
2013-01-18 16:08:00,28.2,7.5,30.45,NW,306,2.0,2.0,41,0.00,,,0.00,Wunderground v.1.15,2013-01-18 21:08:00,
2013-01-18 16:18:00,28.1,8.4,30.45,NW,309,1.0,1.0,43,0.00,,,0.00,Wunderground v.1.15,2013-01-18 21:18:00,
2013-01-18 16:23:00,27.8,8.7,30.45,NW,309,1.0,22.0,44,0.00,,,0.00,Wunderground v.1.15,2013-01-18 21:23:00,
2013-01-18 16:28:00,27.5,8.4,30.45,NW,308,1.0,22.0,44,0.00,,,0.00,Wunderground v.1.15,2013-01-18 21:28:00,
2013-01-18 16:38:00,27.0,9.4,30.45,NW,306,1.0,1.0,47,0.00,,,0.00,Wunderground v.1.15,2013-01-18 21:38:00,
2013-01-18 16:45:00,26.8,8.8,30.45,NW,306,0.0,22.0,46,0.00,,,0.00,Wunderground v.1.15,2013-01-18 21:45:00,
2013-01-18 16:55:00,26.4,9.8,30.46,NW,306,0.0,22.0,49,0.00,,,0.00,Wunderground v.1.15,2013-01-18 21:55:00,
2013-01-18 17:04:00,25.9,10.2,30.45,NW,306,0.0,22.0,51,0.00,,,0.00,Wunderground v.1.15,2013-01-18 22:04:00,
2013-01-18 17:10:00,25.7,10.0,30.46,NW,306,0.0,22.0,51,0.00,,,0.00,Wunderground v.1.15,2013-01-18 22:10:00,
2013-01-18 17:20:00,25.7,10.0,30.45,NW,306,0.0,22.0,51,0.00,,,0.00,Wunderground v.1.15,2013-01-18 22:20:00,
2013-01-18 17:29:00,25.6,10.8,30.46,NW,306,0.0,22.0,53,0.00,,,0.00,Wunderground v.1.15,2013-01-18 22:29:00,
2013-01-18 17:34:00,25.4,11.0,30.47,NW,306,0.0,22.0,54,0.00,,,0.00,Wunderground v.1.15,2013-01-18 22:34:00,
2013-01-18 17:44:00,25.3,11.0,30.48,NW,306,0.0,22.0,54,0.00,,,0.00,Wunderground v.1.15,2013-01-18 22:44:00,
2013-01-18 17:54:00,25.3,10.5,30.48,NW,306,0.0,22.0,53,0.00,,,0.00,Wunderground v.1.15,2013-01-18 22:54:00,
2013-01-18 18:00:00,25.4,10.6,30.49,NW,306,0.0,0.0,53,0.00,,,0.00,Wunderground v.1.15,2013-01-18 23:00:00,
2013-01-18 18:09:00,25.4,10.6,30.49,NW,306,0.0,0.0,53,0.00,,,0.00,Wunderground v.1.15,2013-01-18 23:09:00,
2013-01-18 18:14:00,25.5,11.1,30.49,NW,306,0.0,0.0,54,0.00,,,0.00,Wunderground v.1.15,2013-01-18 23:14:00,
2013-01-18 18:19:00,25.4,11.5,30.50,NW,306,0.0,0.0,55,0.00,,,0.00,Wunderground v.1.15,2013-01-18 23:19:00,
2013-01-18 18:24:00,25.3,11.4,30.50,NW,306,0.0,0.0,55,0.00,,,0.00,Wunderground v.1.15,2013-01-18 23:24:00,
2013-01-18 18:34:00,25.3,11.4,30.51,WNW,284,1.0,1.0,55,0.00,,,0.00,Wunderground v.1.15,2013-01-18 23:34:00,
2013-01-18 18:39:00,25.2,10.9,30.51,West,273,1.0,1.0,54,0.00,,,0.00,Wunderground v.1.15,2013-01-18 23:39:00,
2013-01-18 18:49:00,25.2,11.3,30.52,West,269,1.0,1.0,55,0.00,,,0.00,Wunderground v.1.15,2013-01-18 23:49:00,
2013-01-18 18:59:00,25.0,11.5,30.52,West,264,0.0,0.0,56,0.00,,,0.00,Wunderground v.1.15,2013-01-18 23:59:00,
2013-01-18 19:09:00,24.8,10.9,30.51,WSW,252,1.0,1.0,55,0.00,,,0.00,Wunderground v.1.15,2013-01-19 00:09:00,
2013-01-18 19:14:00,24.7,10.8,30.51,WSW,252,1.0,1.0,55,0.00,,,0.00,Wunderground v.1.15,2013-01-19 00:14:00,
2013-01-18 19:24:00,24.8,10.9,30.51,WSW,252,1.0,1.0,55,0.00,,,0.00,Wunderground v.1.15,2013-01-19 00:24:00,
2013-01-18 19:29:00,24.7,11.2,30.52,WSW,252,0.0,0.0,56,0.00,,,0.00,Wunderground v.1.15,2013-01-19 00:29:00,
2013-01-18 19:34:00,24.6,11.5,30.52,WSW,251,0.0,0.0,57,0.00,,,0.00,Wunderground v.1.15,2013-01-19 00:34:00,
2013-01-18 19:44:00,24.7,11.2,30.51,WSW,238,1.0,1.0,56,0.00,,,0.00,Wunderground v.1.15,2013-01-19 00:44:00,
2013-01-18 19:54:00,24.8,11.3,30.51,WSW,237,0.0,0.0,56,0.00,,,0.00,Wunderground v.1.15,2013-01-19 00:54:00,
2013-01-18 19:59:00,24.8,11.3,30.51,WSW,237,0.0,0.0,56,0.00,,,0.00,Wunderground v.1.15,2013-01-19 00:59:00,
2013-01-18 20:04:00,24.6,11.1,30.51,WSW,237,0.0,0.0,56,0.00,,,0.00,Wunderground v.1.15,2013-01-19 01:04:00,
2013-01-18 20:09:00,24.5,11.0,30.50,WSW,237,0.0,0.0,56,0.00,,,0.00,Wunderground v.1.15,2013-01-19 01:09:00,
2013-01-18 20:14:00,24.4,10.9,30.50,WSW,237,0.0,0.0,56,0.00,,,0.00,Wunderground v.1.15,2013-01-19 01:14:00,
2013-01-18 20:19:00,24.3,11.2,30.51,WSW,237,0.0,0.0,57,0.00,,,0.00,Wunderground v.1.15,2013-01-19 01:19:00,
2013-01-18 20:29:00,24.2,11.5,30.50,WSW,237,0.0,0.0,58,0.00,,,0.00,Wunderground v.1.15,2013-01-19 01:29:00,
2013-01-18 20:34:00,24.1,11.4,30.50,WSW,237,0.0,0.0,58,0.00,,,0.00,Wunderground v.1.15,2013-01-19 01:34:00,
2013-01-18 20:39:00,24.1,11.4,30.50,WSW,237,0.0,0.0,58,0.00,,,0.00,Wunderground v.1.15,2013-01-19 01:39:00,
2013-01-18 20:44:00,24.1,11.8,30.51,WSW,237,0.0,0.0,59,0.00,,,0.00,Wunderground v.1.15,2013-01-19 01:44:00,
2013-01-18 20:49:00,24.0,11.7,30.50,WSW,237,0.0,0.0,59,0.00,,,0.00,Wunderground v.1.15,2013-01-19 01:49:00,
2013-01-18 20:54:00,24.0,12.1,30.50,WSW,237,0.0,0.0,60,0.00,,,0.00,Wunderground v.1.15,2013-01-19 01:54:00,
2013-01-18 20:59:00,23.9,12.0,30.50,WSW,237,0.0,0.0,60,0.00,,,0.00,Wunderground v.1.15,2013-01-19 01:59:00,
2013-01-18 21:04:00,23.8,11.9,30.50,WSW,237,0.0,0.0,60,0.00,,,0.00,Wunderground v.1.15,2013-01-19 02:04:00,
2013-01-18 21:09:00,23.9,11.6,30.50,WSW,237,0.0,0.0,59,0.00,,,0.00,Wunderground v.1.15,2013-01-19 02:09:00,
2013-01-18 21:15:00,23.9,12.0,30.49,WSW,237,0.0,0.0,60,0.00,,,0.00,Wunderground v.1.15,2013-01-19 02:15:00,
2013-01-18 21:24:00,24.0,11.7,30.50,WSW,237,0.0,0.0,59,0.00,,,0.00,Wunderground v.1.15,2013-01-19 02:24:00,
2013-01-18 21:34:00,24.0,12.1,30.49,WSW,237,0.0,0.0,60,0.00,,,0.00,Wunderground v.1.15,2013-01-19 02:34:00,
2013-01-18 21:39:00,23.6,12.1,30.48,WSW,237,0.0,0.0,61,0.00,,,0.00,Wunderground v.1.15,2013-01-19 02:39:00,
2013-01-18 21:44:00,23.2,12.1,30.48,WSW,237,0.0,0.0,62,0.00,,,0.00,Wunderground v.1.15,2013-01-19 02:44:00,
2013-01-18 21:49:00,22.9,12.5,30.48,WSW,237,0.0,0.0,64,0.00,,,0.00,Wunderground v.1.15,2013-01-19 02:49:00,
2013-01-18 21:59:00,22.0,12.7,30.48,WSW,237,0.0,0.0,67,0.00,,,0.00,Wunderground v.1.15,2013-01-19 02:59:00,
2013-01-18 22:04:00,21.6,12.7,30.48,WSW,237,0.0,0.0,68,0.00,,,0.00,Wunderground v.1.15,2013-01-19 03:04:00,
2013-01-18 22:09:00,21.2,12.9,30.47,WSW,237,0.0,0.0,70,0.00,,,0.00,Wunderground v.1.15,2013-01-19 03:09:00,
2013-01-18 22:14:00,20.8,12.6,30.47,WSW,237,0.0,0.0,70,0.00,,,0.00,Wunderground v.1.15,2013-01-19 03:14:00,
2013-01-18 22:19:00,20.5,12.6,30.47,WSW,237,0.0,0.0,71,0.00,,,0.00,Wunderground v.1.15,2013-01-19 03:19:00,
2013-01-18 22:29:00,19.9,12.9,30.47,WSW,237,0.0,0.0,74,0.00,,,0.00,Wunderground v.1.15,2013-01-19 03:29:00,
2013-01-18 22:39:00,19.4,12.8,30.46,WSW,237,0.0,0.0,75,0.00,,,0.00,Wunderground v.1.15,2013-01-19 03:39:00,
2013-01-18 22:44:00,19.3,13.3,30.46,WSW,237,0.0,0.0,77,0.00,,,0.00,Wunderground v.1.15,2013-01-19 03:44:00,
2013-01-18 22:54:00,18.6,12.6,30.46,WSW,237,0.0,0.0,77,0.00,,,0.00,Wunderground v.1.15,2013-01-19 03:54:00,
2013-01-18 23:04:00,18.5,13.4,30.45,WSW,237,0.0,0.0,80,0.00,,,0.00,Wunderground v.1.15,2013-01-19 04:04:00,
2013-01-18 23:14:00,18.4,13.3,30.45,WSW,237,0.0,0.0,80,0.00,,,0.00,Wunderground v.1.15,2013-01-19 04:14:00,
2013-01-18 23:19:00,18.5,13.6,30.45,WSW,237,0.0,0.0,81,0.00,,,0.00,Wunderground v.1.15,2013-01-19 04:19:00,
2013-01-18 23:29:00,18.6,14.0,30.45,WSW,237,0.0,0.0,82,0.00,,,0.00,Wunderground v.1.15,2013-01-19 04:29:00,
2013-01-18 23:34:00,18.8,14.2,30.44,WSW,237,0.0,0.0,82,0.00,,,0.00,Wunderground v.1.15,2013-01-19 04:34:00,
2013-01-18 23:44:00,19.1,14.5,30.45,WSW,237,0.0,0.0,82,0.00,,,0.00,Wunderground v.1.15,2013-01-19 04:44:00,
2013-01-18 23:49:00,19.1,14.5,30.45,WSW,237,0.0,0.0,82,0.00,,,0.00,Wunderground v.1.15,2013-01-19 04:49:00,
2013-01-18 23:54:00,19.1,14.5,30.45,WSW,237,0.0,0.0,82,0.00,,,0.00,Wunderground v.1.15,2013-01-19 04:54:00,
2013-01-18 23:59:00,19.1,14.5,30.45,WSW,237,0.0,0.0,82,0.00,,,0.00,Wunderground v.1.15,2013-01-19 04:59:00,